Change the Weather History Date:

Friday, March 7, 2014

  Actual Average Record
Temperature  
Mean Temperature 50 °F -  
Max Temperature 63 °F - 83 °F (1974)
Min Temperature 36 °F - 19 °F (1960)
Degree Days  
Heating Degree Days 15    
Month to date heating degree days 119  
Since 1 July heating degree days 2339  
Cooling Degree Days 0    
Month to date cooling degree days 0  
Year to date cooling degree days 0  
Moisture  
Dew Point 38 °F    
Average Humidity 73    
Maximum Humidity 93    
Minimum Humidity 45    
Precipitation  
Precipitation 0.00 in - 2.29 in (2003)
Month to date precipitation 0.21  
Year to date precipitation 6.60  
Sea Level Pressure  
Sea Level Pressure 30.00 in    
Wind  
Wind Speed 7 mph (North)    
Max Wind Speed 16 mph    
Max Gust Speed 24 mph    
Visibility 8 miles    
Events      
T = Trace of Precipitation, MM = Missing Value Source: NWS Daily Summary

Daily Weather History Graph

Daily Weather History Graph

Search for Another Location

Airport or City:

Trip Planner

Search our weather history database for the weather conditions in past years. The results will help you decide how hot, cold, wet, or windy it might be!

Date:

Astronomy

Mar. 07, 2014 Rise Set
Actual Time 6:02 AM CST 5:43 PM CST
Civil Twilight 5:37 AM CST 6:08 PM CST
Nautical Twilight 5:09 AM CST 6:36 PM CST
Astronomical Twilight 4:40 AM CST 7:05 PM CST
Moon 10:14 AM CST (3/7) No Moon Set
Length of Visible Light 12h 30m
Length of Day
11h 41m
Waxing Crescent, 42% of the Moon is Illuminated
Mar 7
Waxing Crescent
Mar 8
First Quarter
Mar 16
Full
Mar 23
Last Quarter
Mar 30
New

Hourly Weather History & Observations

Time (CST) Temp. Windchill Dew Point Humidity Pressure Visibility Wind Dir Wind Speed Gust Speed Precip Events Conditions
12:15 AM 35.6 °F 28.6 °F 32.0 °F 87% 29.95 in 5.0 mi NNE 9.2 mph - N/A   Overcast
12:35 AM 35.6 °F 29.9 °F 32.0 °F 87% 29.94 in 4.0 mi NNE 6.9 mph - N/A   Overcast
12:55 AM 35.6 °F 29.2 °F 32.0 °F 87% 29.93 in 4.0 mi NNE 8.1 mph - N/A   Overcast
1:15 AM 35.6 °F 29.9 °F 32.0 °F 87% 29.93 in 3.0 mi NNE 6.9 mph - N/A   Overcast
1:35 AM 35.6 °F 29.9 °F 32.0 °F 87% 29.93 in 3.0 mi NNE 6.9 mph - N/A   Overcast
1:55 AM 35.6 °F 29.9 °F 32.0 °F 87% 29.93 in 5.0 mi North 6.9 mph - N/A   Overcast
2:15 AM 35.6 °F 29.9 °F 33.8 °F 93% 29.94 in 5.0 mi NNE 6.9 mph - N/A   Overcast
2:35 AM 35.6 °F 29.2 °F 33.8 °F 93% 29.93 in 3.0 mi North 8.1 mph - N/A   Overcast
2:55 AM 35.6 °F 29.2 °F 33.8 °F 93% 29.93 in 3.0 mi NNE 8.1 mph - N/A   Overcast
3:15 AM 35.6 °F 29.9 °F 33.8 °F 93% 29.94 in 3.0 mi North 6.9 mph - N/A   Overcast
3:35 AM 35.6 °F 30.7 °F 33.8 °F 93% 29.94 in 3.0 mi North 5.8 mph - N/A   Overcast
3:55 AM 35.6 °F 29.9 °F 33.8 °F 93% 29.94 in 3.0 mi North 6.9 mph - N/A   Overcast
4:15 AM 35.6 °F 29.2 °F 33.8 °F 93% 29.95 in 3.0 mi North 8.1 mph - N/A   Overcast
4:35 AM 35.6 °F 29.2 °F 33.8 °F 93% 29.95 in 3.0 mi NNE 8.1 mph - N/A   Overcast
4:55 AM 37.4 °F 31.4 °F 33.8 °F 87% 29.95 in 3.0 mi NNE 8.1 mph - N/A   Overcast
5:15 AM 37.4 °F 32.1 °F 33.8 °F 87% 29.96 in 3.0 mi NNE 6.9 mph - N/A   Overcast
5:35 AM 37.4 °F 32.1 °F 33.8 °F 87% 29.97 in 7.0 mi North 6.9 mph - N/A   Overcast
5:55 AM 37.4 °F 32.8 °F 33.8 °F 87% 29.98 in 4.0 mi North 5.8 mph - N/A   Overcast
6:15 AM 37.4 °F 32.8 °F 35.6 °F 93% 29.99 in 8.0 mi NNW 5.8 mph - N/A   Overcast
6:35 AM 37.4 °F 32.1 °F 35.6 °F 93% 30.00 in 8.0 mi North 6.9 mph - N/A   Overcast
6:55 AM 39.2 °F 33.6 °F 35.6 °F 87% 30.01 in 10.0 mi North 8.1 mph - N/A   Overcast
7:15 AM 39.2 °F 35.9 °F 35.6 °F 87% 30.00 in 10.0 mi North 4.6 mph - N/A   Overcast
7:35 AM 39.2 °F 33.6 °F 37.4 °F 93% 30.01 in 10.0 mi NNW 8.1 mph - N/A   Overcast
7:55 AM 41.0 °F 37.1 °F 37.4 °F 87% 30.02 in 9.0 mi North 5.8 mph - N/A   Overcast
8:15 AM 42.8 °F 37.0 °F 37.4 °F 81% 30.02 in 10.0 mi North 10.4 mph - N/A   Overcast
8:35 AM 42.8 °F 37.5 °F 39.2 °F 87% 30.03 in 9.0 mi North 9.2 mph - N/A   Overcast
8:55 AM 44.6 °F 39.7 °F 39.2 °F 81% 30.04 in 10.0 mi NNW 9.2 mph - N/A   Overcast
9:15 AM 44.6 °F 38.8 °F 39.2 °F 81% 30.04 in 10.0 mi North 11.5 mph - N/A   Overcast
9:35 AM 46.4 °F 41.9 °F 39.2 °F 76% 30.03 in 10.0 mi North 9.2 mph - N/A   Overcast
9:55 AM 48.2 °F - 39.2 °F 71% 30.03 in 10.0 mi NNE 16.1 mph 24.2 mph N/A   Mostly Cloudy
10:15 AM 48.2 °F - 39.2 °F 71% 30.03 in 10.0 mi NNE 10.4 mph - N/A   Overcast
10:35 AM 48.2 °F - 39.2 °F 71% 30.03 in 10.0 mi NNE 11.5 mph 23.0 mph N/A   Overcast
10:55 AM 51.8 °F - 39.2 °F 62% 30.03 in 10.0 mi NE 16.1 mph 19.6 mph N/A   Overcast
11:15 AM 53.6 °F - 39.2 °F 58% 30.03 in 10.0 mi NNE 18.4 mph 26.5 mph N/A   Mostly Cloudy
11:35 AM 53.6 °F - 39.2 °F 58% 30.02 in 10.0 mi North 12.7 mph 16.1 mph N/A   Overcast
11:55 AM 53.6 °F - 39.2 °F 58% 30.00 in 10.0 mi North 11.5 mph - N/A   Overcast
12:15 PM 55.4 °F - 39.2 °F 54% 29.99 in 10.0 mi NE 17.3 mph 20.7 mph N/A   Overcast
12:35 PM 55.4 °F - 39.2 °F 54% 29.98 in 10.0 mi ENE 12.7 mph - N/A   Partly Cloudy
12:55 PM 57.2 °F - 41.0 °F 55% 29.98 in 10.0 mi ENE 5.8 mph - N/A   Partly Cloudy
1:15 PM 57.2 °F - 39.2 °F 51% 29.97 in 10.0 mi North 10.4 mph - N/A   Partly Cloudy
1:35 PM 59.0 °F - 39.2 °F 48% 29.96 in 10.0 mi NE 9.2 mph - N/A   Scattered Clouds
1:55 PM 59.0 °F - 39.2 °F 48% 29.96 in 10.0 mi North 3.5 mph - N/A   Mostly Cloudy
2:15 PM 60.8 °F - 39.2 °F 45% 29.96 in 10.0 mi NNE 8.1 mph - N/A   Overcast
2:35 PM 60.8 °F - 41.0 °F 48% 29.97 in 10.0 mi NNW 8.1 mph - N/A   Overcast
2:55 PM 60.8 °F - 39.2 °F 45% 29.96 in 10.0 mi WNW 3.5 mph - N/A   Overcast
3:15 PM 60.8 °F - 41.0 °F 48% 29.96 in 10.0 mi NE 9.2 mph - N/A   Overcast
3:35 PM 60.8 °F - 39.2 °F 45% 29.97 in 10.0 mi NW 8.1 mph - N/A   Overcast
3:55 PM 59.0 °F - 39.2 °F 48% 29.97 in 10.0 mi WNW 6.9 mph - N/A   Overcast
4:15 PM 60.8 °F - 39.2 °F 45% 29.97 in 10.0 mi WNW 6.9 mph - N/A   Scattered Clouds
4:35 PM 59.0 °F - 39.2 °F 48% 29.98 in 10.0 mi WNW 5.8 mph - N/A   Scattered Clouds
4:55 PM 57.2 °F - 39.2 °F 51% 29.98 in 10.0 mi WNW 5.8 mph - N/A   Partly Cloudy
5:15 PM 57.2 °F - 39.2 °F 51% 29.99 in 10.0 mi WNW 6.9 mph - N/A   Clear
5:35 PM 55.4 °F - 41.0 °F 58% 30.00 in 10.0 mi West 8.1 mph - N/A   Clear
5:55 PM 55.4 °F - 41.0 °F 58% 30.01 in 10.0 mi West 4.6 mph - N/A   Clear
6:15 PM 55.4 °F - 41.0 °F 58% 30.02 in 10.0 mi West 5.8 mph - N/A   Mostly Cloudy
6:35 PM 55.4 °F - 42.8 °F 63% 30.02 in 10.0 mi West 5.8 mph - N/A   Overcast
6:55 PM 53.6 °F - 42.8 °F 67% 30.03 in 10.0 mi West 5.8 mph - N/A   Overcast
7:15 PM 53.6 °F - 41.0 °F 62% 30.03 in 10.0 mi WNW 3.5 mph - N/A   Mostly Cloudy
7:35 PM 51.8 °F - 41.0 °F 67% 30.04 in 10.0 mi NW 3.5 mph - N/A   Partly Cloudy
7:55 PM 51.8 °F - 41.0 °F 67% 30.04 in 10.0 mi WNW 4.6 mph - N/A   Clear
8:15 PM 51.8 °F - 41.0 °F 67% 30.05 in 10.0 mi NW 3.5 mph - N/A   Clear
8:35 PM 50.0 °F - 41.0 °F 71% 30.06 in 10.0 mi Calm Calm - N/A   Clear
8:55 PM 46.4 °F - 39.2 °F 76% 30.06 in 10.0 mi Calm Calm - N/A   Clear
9:15 PM 46.4 °F - 41.0 °F 81% 30.06 in 10.0 mi Calm Calm - N/A   Clear
9:35 PM 46.4 °F - 41.0 °F 81% 30.06 in 10.0 mi Calm Calm - N/A   Clear
9:55 PM 46.4 °F - 41.0 °F 81% 30.05 in 10.0 mi Calm Calm - N/A   Clear
10:15 PM 46.4 °F - 39.2 °F 76% 30.05 in 10.0 mi Calm Calm - N/A   Clear
10:35 PM 46.4 °F - 41.0 °F 81% 30.06 in 10.0 mi Calm Calm - N/A   Clear
10:55 PM 44.6 °F - 39.2 °F 81% 30.07 in 10.0 mi Calm Calm - N/A   Clear
11:15 PM 44.6 °F - 39.2 °F 81% 30.05 in 10.0 mi Calm Calm - N/A   Clear
11:35 PM 44.6 °F - 39.2 °F 81% 30.05 in 10.0 mi Calm Calm - N/A   Clear
11:55 PM 44.6 °F - 39.2 °F 81% 30.06 in 10.0 mi Calm Calm - N/A   Clear